When you browse on this site, cookies collect data to enhance your experience and personalize the content and advertising you see.
Visit our Privacy Policy to learn more. By continuing to use the site, you agree to this use of cookies and data.
  • In Czech Republic
  • List of Countries
  • For 7 days
  • Water Temperature
  • Weather Map
  • Weather Widgets
  • user-avatar
    Login

    Hourly Weather Innsbruck

    Today, 24 January, Friday

    Time Temperature Precipitation Wind Pressure Humidity
    00:00 -6°C° 0 mm 3 mps 598 mmHg 44%
    01:00 -6°C° 0 mm 2 mps 598 mmHg 44%
    02:00 -6°C° 0 mm 2 mps 597 mmHg 43%
    03:00 -6°C° 0 mm 2 mps 597 mmHg 42%
    04:00 -6°C° 0 mm 2 mps 597 mmHg 41%
    05:00 -6°C° 0 mm 2 mps 597 mmHg 40%
    06:00 -6°C° 0 mm 2 mps 597 mmHg 40%
    07:00 -6°C° 0 mm 2 mps 597 mmHg 39%
    08:00 -3°C° 0 mm 1 mps 597 mmHg 42%
    09:00 -2°C° 0 mm 1 mps 598 mmHg 45%
    10:00 -1°C° 0 mm 1 mps 598 mmHg 48%
    11:00 0°C° 0 mm 1 mps 598 mmHg 53%
    12:00 +1°C° 0 mm 1 mps 598 mmHg 58%
    13:00 +2°C° 0 mm 1 mps 599 mmHg 63%
    14:00 +1°C° 0 mm 1 mps 598 mmHg 62%
    15:00 +1°C° 0 mm 1 mps 597 mmHg 61%
    16:00 0°C° 0 mm 1 mps 597 mmHg 60%
    17:00 -1°C° 0 mm 1 mps 597 mmHg 59%
    18:00 -4°C° 0 mm 2 mps 596 mmHg 58%
    19:00 -5°C° 0 mm 2 mps 596 mmHg 56%
    20:00 -5°C° 0 mm 2 mps 596 mmHg 57%
    21:00 -6°C° 0 mm 2 mps 596 mmHg 58%
    22:00 -6°C° 0 mm 2 mps 596 mmHg 58%
    23:00 -6°C° 0 mm 2 mps 596 mmHg 60%

    Tomorrow, 25 January, Saturday

    Time Temperature Precipitation Wind Pressure Humidity
    00:00 -6°C° 0 mm 2 mps 596 mmHg 61%
    01:00 -6°C° 0 mm 2 mps 595 mmHg 63%
    02:00 -6°C° 0 mm 2 mps 595 mmHg 64%
    03:00 -6°C° 0 mm 2 mps 595 mmHg 66%
    04:00 -4°C° 0 mm 1 mps 594 mmHg 68%
    05:00 -4°C° 0 mm 1 mps 594 mmHg 70%
    06:00 -4°C° 0 mm 1 mps 594 mmHg 72%
    07:00 -4°C° 0 mm 1 mps 594 mmHg 74%
    08:00 -3°C° 0 mm 1 mps 595 mmHg 76%
    09:00 -3°C° 0 mm 1 mps 595 mmHg 77%
    10:00 -3°C° 0 mm 0 mps 596 mmHg 78%
    11:00 -2°C° 0.1 mm 0 mps 596 mmHg 80%
    12:00 -2°C° 0.1 mm 0 mps 596 mmHg 82%
    13:00 -2°C° 0.1 mm 0 mps 595 mmHg 83%
    14:00 -2°C° 0.1 mm 0 mps 595 mmHg 84%
    15:00 -2°C° 0.1 mm 0 mps 595 mmHg 86%
    16:00 -2°C° 0.1 mm 0 mps 594 mmHg 87%
    17:00 -3°C° 0.1 mm 0 mps 594 mmHg 87%
    18:00 -4°C° 0.1 mm 0 mps 594 mmHg 88%
    19:00 -4°C° 0.1 mm 0 mps 594 mmHg 89%
    20:00 -4°C° 0.1 mm 0 mps 594 mmHg 89%
    21:00 -5°C° 0.1 mm 0 mps 594 mmHg 89%
    22:00 -5°C° 0.1 mm 0 mps 594 mmHg 90%
    23:00 -5°C° 0 mm 0 mps 594 mmHg 89%

    Day after tomorrow, 26 January, Sunday

    Time Temperature Precipitation Wind Pressure Humidity
    00:00 -5°C° 0 mm 0 mps 594 mmHg 89%
    01:00 -5°C° 0 mm 0 mps 594 mmHg 88%
    02:00 -5°C° 0.1 mm 0 mps 593 mmHg 88%
    03:00 -5°C° 0.1 mm 0 mps 593 mmHg 88%
    04:00 -5°C° 0.1 mm 0 mps 593 mmHg 89%
    05:00 -4°C° 0.1 mm 1 mps 593 mmHg 88%
    06:00 -4°C° 0.1 mm 1 mps 593 mmHg 88%
    07:00 -6°C° 0.1 mm 1 mps 593 mmHg 88%
    08:00 -4°C° 0 mm 1 mps 594 mmHg 85%
    09:00 -4°C° 0 mm 0 mps 594 mmHg 82%
    10:00 -4°C° 0 mm 0 mps 595 mmHg 79%
    11:00 -3°C° 0 mm 0 mps 594 mmHg 77%
    12:00 -3°C° 0 mm 0 mps 594 mmHg 76%
    13:00 -2°C° 0 mm 0 mps 594 mmHg 74%
    14:00 -2°C° 0 mm 0 mps 594 mmHg 77%
    15:00 -3°C° 0 mm 0 mps 594 mmHg 80%
    16:00 -3°C° 0 mm 0 mps 593 mmHg 83%
    17:00 -4°C° 0 mm 0 mps 593 mmHg 82%
    18:00 -4°C° 0 mm 1 mps 593 mmHg 82%
    19:00 -6°C° 0 mm 1 mps 592 mmHg 81%
    20:00 -6°C° 0 mm 1 mps 593 mmHg 79%
    21:00 -7°C° 0 mm 1 mps 593 mmHg 77%
    22:00 -7°C° 0 mm 1 mps 593 mmHg 75%
    23:00 -7°C° 0 mm 1 mps 593 mmHg 74%

    27 January, Monday

    Time Temperature Precipitation Wind Pressure Humidity
    00:00 -7°C° 0 mm 1 mps 593 mmHg 72%
    01:00 -7°C° 0 mm 1 mps 593 mmHg 71%
    02:00 -7°C° 0 mm 1 mps 592 mmHg 71%
    03:00 -7°C° 0 mm 1 mps 592 mmHg 70%
    04:00 -7°C° 0 mm 1 mps 592 mmHg 69%
    05:00 -7°C° 0 mm 1 mps 592 mmHg 69%
    06:00 -7°C° 0 mm 1 mps 592 mmHg 68%
    07:00 -7°C° 0 mm 1 mps 592 mmHg 67%
    08:00 -6°C° 0 mm 1 mps 593 mmHg 67%
    09:00 -4°C° 0 mm 1 mps 593 mmHg 67%
    10:00 -3°C° 0 mm 1 mps 594 mmHg 67%
    11:00 -2°C° 0 mm 1 mps 594 mmHg 66%
    12:00 -1°C° 0 mm 1 mps 594 mmHg 65%
    13:00 0°C° 0 mm 1 mps 594 mmHg 64%
    14:00 -1°C° 0 mm 1 mps 593 mmHg 67%
    15:00 -1°C° 0 mm 1 mps 593 mmHg 70%
    16:00 -2°C° 0 mm 1 mps 593 mmHg 74%
    17:00 -3°C° 0 mm 1 mps 592 mmHg 72%
    18:00 -6°C° 0 mm 2 mps 592 mmHg 71%
    19:00 -6°C° 0 mm 2 mps 592 mmHg 70%
    20:00 -7°C° 0 mm 2 mps 592 mmHg 70%
    21:00 -7°C° 0 mm 2 mps 591 mmHg 71%
    22:00 -8°C° 0 mm 3 mps 591 mmHg 71%
    23:00 -8°C° 0 mm 3 mps 591 mmHg 73%

    28 January, Tuesday

    Time Temperature Precipitation Wind Pressure Humidity
    00:00 -8°C° 0 mm 3 mps 590 mmHg 76%
    01:00 -8°C° 0 mm 3 mps 590 mmHg 78%
    02:00 -8°C° 0 mm 3 mps 590 mmHg 79%
    03:00 -8°C° 0 mm 4 mps 589 mmHg 80%
    04:00 -8°C° 0 mm 4 mps 589 mmHg 80%
    05:00 -8°C° 0 mm 4 mps 589 mmHg 80%
    06:00 -9°C° 0 mm 4 mps 588 mmHg 80%
    07:00 -9°C° 0 mm 4 mps 588 mmHg 80%
    08:00 -8°C° 0 mm 4 mps 588 mmHg 79%
    09:00 -7°C° 0 mm 4 mps 588 mmHg 77%
    10:00 -7°C° 0 mm 4 mps 588 mmHg 76%
    11:00 -5°C° 0 mm 4 mps 589 mmHg 76%
    12:00 -4°C° 0 mm 4 mps 589 mmHg 77%
    13:00 -2°C° 0 mm 3 mps 589 mmHg 77%
    14:00 -4°C° 0 mm 3 mps 589 mmHg 80%
    15:00 -3°C° 0 mm 2 mps 589 mmHg 82%
    16:00 -3°C° 0 mm 2 mps 589 mmHg 84%
    17:00 -2°C° 0 mm 1 mps 589 mmHg 85%
    18:00 -3°C° 0 mm 1 mps 589 mmHg 87%
    19:00 -3°C° 0 mm 1 mps 589 mmHg 88%
    20:00 -4°C° 0.1 mm 1 mps 589 mmHg 89%
    21:00 -4°C° 0.1 mm 1 mps 589 mmHg 90%
    22:00 -4°C° 0.1 mm 1 mps 589 mmHg 91%
    23:00 -4°C° 0.1 mm 1 mps 589 mmHg 90%

    29 January, Wednesday

    Time Temperature Precipitation Wind Pressure Humidity
    00:00 -4°C° 0.1 mm 1 mps 589 mmHg 89%
    01:00 -6°C° 0.1 mm 2 mps 588 mmHg 88%
    02:00 -6°C° 0 mm 2 mps 588 mmHg 87%
    03:00 -7°C° 0 mm 2 mps 588 mmHg 86%
    04:00 -7°C° 0 mm 2 mps 587 mmHg 85%
    05:00 -7°C° 0 mm 2 mps 587 mmHg 85%
    06:00 -6°C° 0 mm 2 mps 587 mmHg 85%
    07:00 -6°C° 0 mm 2 mps 587 mmHg 85%
    08:00 -5°C° 0 mm 2 mps 587 mmHg 84%
    09:00 -5°C° 0 mm 2 mps 587 mmHg 83%
    10:00 -4°C° 0 mm 2 mps 588 mmHg 82%
    11:00 -3°C° 0 mm 2 mps 588 mmHg 81%
    12:00 -3°C° 0 mm 2 mps 587 mmHg 81%
    13:00 -2°C° 0 mm 2 mps 587 mmHg 81%
    14:00 -3°C° 0.1 mm 2 mps 587 mmHg 85%
    15:00 -1°C° 0.1 mm 1 mps 587 mmHg 90%
    16:00 -2°C° 0.1 mm 1 mps 586 mmHg 95%
    17:00 -3°C° 0.6 mm 1 mps 586 mmHg 94%
    18:00 -6°C° 0.6 mm 2 mps 586 mmHg 93%
    19:00 -6°C° 0.6 mm 2 mps 587 mmHg 93%
    20:00 -7°C° 0.8 mm 2 mps 587 mmHg 93%
    21:00 -8°C° 0.8 mm 2 mps 587 mmHg 92%
    22:00 -7°C° 0.8 mm 1 mps 587 mmHg 92%
    23:00 -8°C° 0.1 mm 1 mps 587 mmHg 91%
    Show more